Regional Weather Roundup
Issued by NWS Grand Forks, ND

Home | Current Version | Previous Version | Text Only | Print | Product List | Glossary On
Versions: 1 2 3 4 5 6 7 8 9 10 11 12 13 14 15 16 17 18 19 20 21 22 23 24 25 26 27 28 29 30 31 32 33 34 35 36 37 38 39 40 41 42 43 44 45 46 47 48 49 50
000
ASUS43 KFGF 301310
RWRFGF
PRAIRIE TO PINES  WEATHER ROUNDUP
NATIONAL WEATHER SERVICE EASTERN NORTH DAKOTA/GRAND FORKS ND
800 AM CDT TUE JUN 30 2015

 **SATELLITE DATA USED TO AUGMENT SKY COVER AT AUTOMATED STATIONS**
 *****  WEATHER ACROSS EASTERN NORTH DAKOTA  *****

CITY           SKY/WX    TMP DP  RH WIND       PRES   REMARKS
GRAND FORKS    PTSUNNY   58  57  97 W3        29.96R FOG
GRAND FRKS AFB CLOUDY    60  58  95 W5        29.98R
GRAND FRKS NWS   N/A     59 N/A N/A E1          N/A
DEVILS LAKE    PTSUNNY   63  55  77 E6        29.97F
FARGO          SUNNY     62  59  90 CALM      29.96S FOG
WAHPETON ARPT  MOSUNNY   59  55  88 CALM      29.97S
$$

 ***** WEATHER ACROSS CENTRAL AND WESTERN NORTH DAKOTA  *****

CITY           SKY/WX    TMP DP  RH WIND       PRES   REMARKS
BISMARCK       CLOUDY    67  62  84 S5        29.94F
MINOT          CLOUDY    64  61  90 E7        29.94R FOG
JAMESTOWN      CLOUDY    64  60  87 E6        29.95F FOG
MINOT AFB      LGT RAIN  63  63 100 SE13      29.93S
GARRISON         N/A     68  63  84 NE6       29.96R
WILLISTON      FOG       65  62  90 N9        29.98R VSB 1
DICKINSON      CLOUDY    68  61  78 SE7       29.94S
HETTINGER      CLOUDY    65  60  84 SE9       29.97R
$$

 *****  OTHER AIRPORT OBSERVATIONS IN OUR AREA  *****

CITY           SKY/WX    TMP DP  RH WIND       PRES   REMARKS
WALHALLA       FAIR      59  59 100 MISG      29.98R
GRAFTON AIRPOR FAIR      59  59 100 CALM      29.97R
VALLEY CITY AR FAIR      59  59 100 NE3       29.98R FOG
CANDO          PTSUNNY   59  59 100 E6        29.99S FOG
CAVALIER APRT  FAIR      59  59 100 CALM      29.97R FOG
GWINNER        NOT AVBL
ROLLA          FAIR      59  59 100 CALM      30.01R
 ***** THE ABOVE OBSERVATIONS ARE NON NWS ARE NOT QUALITY
       CONTROLLED AND MAY MIS-REPORT RAIN FOR SNOW...
$$

  *****  WEATHER ACROSS NORTHERN MINNESOTA  *****

CITY           SKY/WX    TMP DP  RH WIND       PRES   REMARKS
FLAG ISLAND    MOSUNNY   61  52  72 SE7       29.99S
WARROAD        MOSUNNY   61  55  82 SE6       30.00R
ROSEAU         SUNNY     59  54  82 SE5       29.99S
HALLOCK        SUNNY     61  57  88 SE3       29.96R
THF RVR FALLS  SUNNY     59  55  88 E8        29.98S
BAUDETTE       MOSUNNY   58  53  84 E6        29.99S
WASKISH        MOSUNNY   57  54  88 E5        29.99S
CROOKSTON      SUNNY     61  57  88 SE5       29.97R
$$
  *****  WEATHER ACROSS CENTRAL AND WEST MINNESOTA  *****

CITY           SKY/WX    TMP DP  RH WIND       PRES   REMARKS
FOSSTON        SUNNY     61  55  82 E3        29.97F
BEMIDJI        SUNNY     58  54  86 E8        29.99S
PARK RAPIDS    SUNNY     63  57  81 NE6       29.97S
ELBOW LAKE     FAIR      62  59  87 CALM      29.97R
WADENA         SUNNY     59  57  94 CALM      29.97R
DETROIT LAKES  SUNNY     61  57  88 E3        29.98S
MOORHEAD       SUNNY     59  57  94 CALM      29.97R FOG
FERGUS FALLS   SUNNY     63  61  94 CALM      29.97R
MORRIS MN      SUNNY     63  61  94 CALM      29.96R
STAPLES        SUNNY     59  55  88 CALM      29.97R
$$
  *****  WEATHER ELSEWHERE ACROSS MINNESOTA  *****

CITY           SKY/WX    TMP DP  RH WIND       PRES   REMARKS
DULUTH         CLOUDY    56  53  90 E10       29.97R
INTRNTL FALLS  MOSUNNY   58  51  78 E7        30.00R
ELY            CLOUDY    54  46  76 E7        29.99R
CLOQUET        CLOUDY    57  54  88 E9        29.97R
WHEATON        MOSUNNY   61  61 100 CALM      29.98S FOG
BRAINERD       SUNNY     61  57  87 NE6       29.97R
HIBBING        PTSUNNY   59  53  80 N6        29.98R
ALEXANDRIA     SUNNY     63  58  83 NE8       29.98R
SAINT CLOUD    SUNNY     63  59  87 N5        29.95R
MINNEAPOLIS    MOSUNNY   65  61  87 N6        29.92R
$$

  *****  WEATHER ACROSS SOUTH DAKOTA  *****

CITY           SKY/WX    TMP DP  RH WIND       PRES   REMARKS
SIOUX FALLS    CLOUDY    66  63  90 CALM      29.96R
BROOKINGS      CLOUDY    63  59  88 CALM      29.98S
WATERTOWN      PTSUNNY   64  61  90 N5        29.97R FOG
HURON          LGT RAIN  67  64  90 SE6       29.92F FOG
SISSETON         N/A     65  61  87 CALM      29.95F
ABERDEEN       CLOUDY    68  63  84 E8        29.94F
MITCHELL       LGT RAIN  69  67  93 S7        29.93F FOG
PIERRE         CLOUDY    69  63  81 SE12      29.91R
MOBRIDGE       CLOUDY    68  67  96 E7        29.92R
RAPID CITY     PTSUNNY   71  60  68 NW7       29.95S
$$

  *****  SOME WEATHER IN NEARBY STATES *****

CITY           SKY/WX    TMP DP  RH WIND       PRES   REMARKS
GLASGOW MT     NOT AVBL
GREAT FALLS MT SUNNY     66  58  75 W6        30.01R
CHEYENNE WY    MOSUNNY   62  47  57 W10       30.22S
SCOTTSBLUFF NE MOSUNNY   64  56  75 NW6       30.07S
OMAHA NE       CLOUDY    70  64  81 N6        29.95R
DES MOINES IA  CLOUDY    69  62  78 NW9       29.91R HAZE
DAVENPORT IA   SUNNY     67  62  84 NW5       29.87R
CHICAGO IL     MOSUNNY   64  60  87 W7        29.81R
EAU CLAIRE WI  PTSUNNY   63  59  87 N5        29.90S
LA CROSSE WI   CLOUDY    62  60  93 N6        29.89R FOG
$$

  *****  SOME NATIONAL WEATHER *****

CITY           SKY/WX    TMP DP  RH WIND       PRES   REMARKS
LA GUARDIA NY  MOSUNNY   75  58  55 S7        29.97F
RALEIGH NC     MOSUNNY   78  64  61 S7        29.97S
ATLANTA GA     PTSUNNY   77  70  79 W7        30.02R
NEW ORLEANS LA PTSUNNY   81  74  79 SW8       30.07R
OKLAHOMA CITY  MOSUNNY   70  66  87 CALM      30.01F
ALBUQUERQUE NM PTSUNNY   71  49  45 NW5       30.26R
SALT LAKE CITY CLOUDY    80  54  40 W7        30.07R
LOS ANGELES CA PTCLDY    66  62  87 NW3       29.87F
BOISE ID       PTCLDY    74  56  53 SW3       30.00R
SEATTLE WA     FOG       59  57  93 SW7       30.11S VSB 1/2
$$

*** WEATHER ACROSS MANITOBA...SASKATCHEWAN AND ONTARIO ***
                ***ONTARIO***

CITY           SKY/WX    TMP DP  RH WIND       PRES   REMARKS
GERALDTON      PTSUNNY   48  41  76 NE9       30.02R
THUNDER BAY    MOSUNNY   54  39  58 NE7       29.99R
SIOUX LOOKOUT  MOSUNNY   55  50  82 SE3       30.03R
TORONTO        PTSUNNY   64  57  77 E7        29.85S
BIG TROUT LK   SUNNY     54  43  66 SW7       30.04S
PICKLE LAKE    MOSUNNY   50  43  76 E5        30.05R
DRYDEN         SUNNY     55  52  88 E3        30.02R
KENORA         MOSUNNY   57  52  82 SE6       30.02R
$$
                *** MANITOBA***

CITY           SKY/WX    TMP DP  RH WIND       PRES   REMARKS
BRANDON        CLOUDY    59  59 100 E3        30.00R
DAUPHIN        SUNNY     57  55  94 W2        30.00R FOG
ISLAND LAKE    NOT AVBL
PILOT MOUND      N/A     59  59 100 S2          N/A
THE PAS        PTSUNNY   59  57  94 SE7       29.97F
THOMPSON       CLOUDY    54  50  87 CALM      29.99S
WINNIPEG       PTSUNNY   63  57  82 SE6       29.98S
LYNN LAKE      PTSUNNY   55  55 100 S3        29.94F
CHURCHILL      MOSUNNY   55  46  71 W6        29.92F
GILLAM         PTSUNNY   57  43  58 S12       30.00S
$$
                ***SASKATCHEWAN***

CITY           SKY/WX    TMP DP  RH WIND       PRES   REMARKS
ESTEVAN        LGT RAIN  63  63 100 N5        29.97R SMOKE
KINDERSLEY     LGT RAIN  61  55  82 E6        29.95S VSB 1
LLOYDMINSTER   LGT RAIN  61  59  94 NE3       29.98F
PRINCE ALBERT  SMOKE     61  61 100 NE5       29.93F VSB 3/8
REGINA         LGT RAIN  61  61 100 VRB2      29.98R VSB 5/8
YORKTON        SUNNY     61  59  94 SE5       29.98S FOG
N. BATTLEFORD  MOSUNNY   63  61  94 CALM      29.96F
LA RONGE       SMOKE     55  52  88 CALM      29.92S VSB 3/4
SASKATOON      SMOKE     63  55  77 SW8       29.97S VSB 3/4
SWIFT CURRENT  HAZE      61  54  77 SE7       29.97F VSB 1
$$
NOTE: THESE ARE AUTOMATED STATIONS WITH LIMITED QUALITY CONTROL
      "FAIR" INDICATES FEW OR NO CLOUDS BELOW 12,000 FEET WITH NO
      SIGNIFICANT WEATHER AND/OR OBSTRUCTIONS TO VISIBILITY.
      SKY/WX - SKY CONDITION AND SIGNIFICANT WEATHER.
      TMP - AIR TEMPERATURE.    DP   - DEWPOINT TEMPERATURE.
      RH  - RELATIVE HUMIDITY.  PRES - PRESSURE.
      HX  - HEAT INDEX.         WCI  - WIND CHILL INDEX.
$


USA.gov is the U.S. government's official web portal to all federal, state and local government web resources and services.